STARLINK-5799 (56002 NORAD) Tracking and Keplerian Element Data

This shows tracking and keplerian element data for the satellite.

Feedback or suggestion? Click here.




ElementValue
Catalog56002
NameSTARLINK-5799
Epoch Orbit714
Epoch Day127.16667824
Epoch Year2023
RAAN296.5897
Inclination43.0007
Eccentricity0.0001504
Argument of Perigee276.1067
Mean Anonmoly177.6951
Mean Motion15.37045441
Decay Rate-0.00950426
L11 56002U 23042S 23127.16667824 -.00950426 00000+0 -28056-1 0 9998
L22 56002 43.0007 296.5897 0001504 276.1067 177.6951 15.37045441 7146



Live tracking and technical data element details for STARLINK-5799 (NORAD 56002). STARLINK-5799 can be tracked NOW for your location showing map with azimuth and elevation plus other details from your city location.







IsCatalogInMostPopularTable: catalog: 56002, numindb: -1

Insert: records affected: 1


GetName: 56002 STARLINK-5799

Hit Count: inserted at: Mon, 05 Jun 2023 00:37:20 GMT